sat.trackr.live / text

‹ back to catalog

STARLINK-37296

NORAD 68672 · 2026-077L

PAYLOAD ACTIVE UNKNOWN

§ Identity

Operator
Country
US
Launch date
2026-04-11
Launch site
AFWTR
Launch vehicle
Mass (kg)
RCS (m²)

Purposes: comms

External: N2YO · Heavens-Above · Gunter

§ Orbital elements

Epoch: 2026-09-19T22:08:58.847712Z

Period
93.91 min
Inclination
97.2841°
Eccentricity
0.0002355
Mean motion
15.33460402 rev/d
Perigee alt
463.9 km
Apogee alt
467.1 km
Semi-major
6,843.6 km
B*
4.6601e-4
RAAN
132.8101°
Arg perigee
92.0823°
Mean anomaly
268.0689°
Rev number
2,492

§ Raw data

STARLINK-372961 68672U 26077L   26262.92290333  .00015007  00000+0  46601-3 0  99922 68672  97.2841 132.8101 0002355  92.0823 268.0689 15.33460402 24921

JSON: /api/v1/satellites/68672 · /tle

For live sub-satellite position, see the globe view (requires WebGL).

§ Visibility from observer

Set your observer location to see the next 7 days of passes ≥ 10°. The values pass through the URL so the page stays shareable.

No JS? Fill the form by hand. The geolocation button needs JavaScript.